Amritsar, India

10:53 AM IST on November 18, 2017 (GMT +0530)
Amritsar

Weather History for VIAR - November, 2011

Change the Weather History Date:

Wednesday, November 9, 2011

  Actual Average Record
Temperature  
Mean Temperature 70 °F -  
Max Temperature 84 °F 80 °F 87 °F (2007)
Min Temperature 57 °F 53 °F 46 °F (1996)
Cooling Degree Days 6    
Growing Degree Days 20 (Base 50)    
Moisture  
Dew Point 58 °F    
Average Humidity 71    
Maximum Humidity 88    
Minimum Humidity 33    
Precipitation  
Precipitation 0.00 in - - ()
Sea Level Pressure  
Sea Level Pressure 29.95 in    
Wind  
Wind Speed 1 mph ()    
Max Wind Speed 8 mph    
Max Gust Speed -    
Visibility 2.5 miles    
Events      
Averages and records for this station are not official NWS values.
T = Trace of Precipitation, MM = Missing Value Source: Averaged Metar Reports

Daily Weather History Graph

Daily Weather History Graph

Search for Another Location

Airport or City:

Trip Planner

Search our weather history database for the weather conditions in past years. The results will help you decide how hot, cold, wet, or windy it might be!

Date:

Astronomy

Nov. 09, 2011 Rise Set
Actual Time 6:52 AM IST 5:35 PM IST
Civil Twilight 6:27 AM IST 6:00 PM IST
Nautical Twilight 5:58 AM IST 6:30 PM IST
Astronomical Twilight 5:29 AM IST 6:58 PM IST
Moon 4:31 PM IST (11/9) 5:24 AM IST (11/9)
Length of Visible Light 11h 33m
Length of Day
10h 42m
Waxing Gibbous, 98% of the Moon is Illuminated
Nov 9
Waxing Gibbous
Nov 11
Full
Nov 18
Last Quarter
Nov 25
New
Dec 2
First Quarter

Hourly Weather History & Observations

Time (IST) Temp. Heat Index Dew Point Humidity Pressure Visibility Wind Dir Wind Speed Gust Speed Precip Events Conditions
12:00 AM 62.6 °F - 53.6 °F 72% 29.95 in 2.5 mi Calm Calm - N/A   Haze
1:00 AM 60.8 °F - 55.4 °F 82% 29.95 in 2.5 mi Calm Calm - N/A   Haze
2:00 AM 59.0 °F - 55.4 °F 88% 29.95 in 2.5 mi Calm Calm - N/A   Haze
2:30 AM 58 °F - 54 °F 83% 29.94 in 2 mi Calm Calm - -   Haze
3:00 AM 59.0 °F - 55.4 °F 88% 29.95 in 2.5 mi Calm Calm - N/A   Haze
4:00 AM 59.0 °F - 53.6 °F 82% 29.95 in 2.5 mi Calm Calm - N/A   Haze
5:00 AM 59.0 °F - 55.4 °F 88% 29.95 in 2.2 mi Variable 1.2 mph - N/A   Mist
5:30 AM 59 °F - 55 °F 84% 29.96 in 1 mi Calm Calm - -   Mist
6:00 AM 59.0 °F - 53.6 °F 82% 29.95 in 2.2 mi Calm Calm - N/A   Partly Cloudy
7:00 AM 59.0 °F - 55.4 °F 88% 29.98 in 3.1 mi Calm Calm - N/A   Scattered Clouds
8:00 AM 60.8 °F - 57.2 °F 88% 29.98 in 3.1 mi Calm Calm - N/A   Scattered Clouds
8:30 AM 63 °F - 58 °F 78% 29.99 in 2 mi Calm Calm - -   Haze
9:00 AM 68.0 °F - 57.2 °F 68% 30.01 in 3.1 mi Variable 2.3 mph - N/A   Haze
10:00 AM 69.8 °F - 57.2 °F 64% 30.01 in 3.7 mi Variable 3.5 mph - N/A   Mostly Cloudy
11:00 AM 73.4 °F - 59.0 °F 61% 30.01 in 3.7 mi WNW 4.6 mph - N/A   Mostly Cloudy
11:30 AM 76 °F - 59 °F 46% 29.96 in 2 mi WNW 3.5 mph - -   Partly Cloudy
1:00 PM 80.6 °F 81.1 °F 59.0 °F 48% 29.95 in 3.7 mi WNW 8.1 mph - N/A   Mostly Cloudy
2:00 PM 80.6 °F 81.1 °F 59.0 °F 48% 29.95 in 3.7 mi WNW 8.1 mph - N/A   Mostly Cloudy
2:30 PM 82 °F - 58 °F 33% 29.88 in 2 mi NW 8.1 mph - -   Partly Cloudy
3:00 PM 80.6 °F 81.1 °F 59.0 °F 48% 29.92 in 3.7 mi NW 6.9 mph - N/A   Mostly Cloudy
4:00 PM 80.6 °F 81.5 °F 60.8 °F 51% 29.89 in 3.7 mi Variable 3.5 mph - N/A   Mostly Cloudy
5:30 PM 76 °F - 62 °F 54% 29.87 in 2 mi Calm Calm - -   Haze
6:00 PM 73.4 °F - 62.6 °F 69% 29.92 in 3.1 mi Calm Calm - N/A   Haze
7:00 PM 71.6 °F - 60.8 °F 69% 29.92 in 2.5 mi Calm Calm - N/A   Haze
8:00 PM 69.8 °F - 60.8 °F 73% 29.95 in - Calm Calm - N/A   Haze
8:30 PM 68 °F - 62 °F 75% 29.94 in 1 mi Calm Calm - -   Haze
9:00 PM 68.0 °F - 60.8 °F 78% 29.95 in 1.9 mi Calm Calm - N/A   Haze
10:00 PM 66.2 °F - 60.8 °F 83% 29.95 in 1.9 mi Calm Calm - N/A   Haze
11:00 PM 66.2 °F - 60.8 °F 83% 29.95 in 1.9 mi Calm Calm - N/A   Haze
11:30 PM 66 °F - 61 °F 78% 29.95 in 1 mi Calm Calm - -   Haze